Vorticity
4 3 4 6 8 9 10 7 4 2 7 11 10 6 10 9 7 9 10 2 5 18
5 5 8 9 10 10 7 5 4 10 15 11 6 7 15 2 18 5 5 5 12 9
9 10 11 12 10 6 6 9 14 14 4 11 9 13 2 19 7 -1 9 9 16 13
12 13 11 8 6 7 11 13 11 4 5 13 13 7 16 7 3 8 9 17 22 19
12 10 7 6 10 11 12 5 8 22 16 13 11 15 9 5 5 9 13 2 13 14
8 7 9 11 11 7 10 27 18 12 11 8 13 10 2 8 3 9 4 7 15 9
9 10 10 8 15 22 13 12 -3 5 11 19 3 4 7 6 11 15 11 13 15 -0
10 12 18 18 10 9 7 10 15 15 14 13 7 4 7 11 14 15 13 8 6 10
15 11 7 8 7 8 8 9 8 11 9 5 4 9 11 12 9 12 12 8 8 12
9 9 9 12 14 16 18 24 11 13 10 4 12 7 10 8 12 13 12 10 8 14
12 15 13 11 11 11 15 14 11 7 13 9 9 10 10 12 12 12 12 15 17 15
12 10 9 9 9 11 12 10 11 11 10 8 11 13 13 15 18 18 11 10 8 7
10 9 8 11 11 9 11 10 10 7 9 13 14 14 19 13 11 12 8 9 8 7
9 10 13 12 11 11 11 8 10 14 17 16 15 13 13 13 9 9 8 7 6 6
Height
5768 5767 5767 5766 5765 5764 5762 5760 5759 5757 5755 5752 5749 5746 5743 5739 5737 5734 5730 5727 5722 5716
5757 5757 5756 5756 5754 5753 5751 5750 5749 5747 5745 5742 5739 5736 5732 5729 5727 5724 5720 5715 5708 5703
5747 5747 5746 5745 5744 5743 5741 5740 5739 5737 5734 5732 5730 5726 5723 5720 5718 5713 5708 5702 5696 5689
5736 5736 5736 5735 5734 5733 5731 5730 5728 5726 5724 5721 5718 5716 5713 5711 5707 5702 5696 5691 5684 5676
5726 5726 5726 5725 5724 5722 5720 5719 5717 5715 5713 5710 5708 5706 5704 5701 5697 5691 5686 5681 5673 5665
5717 5716 5716 5715 5713 5712 5710 5708 5706 5704 5702 5701 5699 5696 5693 5690 5686 5681 5677 5671 5665 5657
5707 5706 5705 5704 5703 5701 5700 5699 5697 5695 5693 5691 5689 5686 5684 5680 5676 5672 5668 5663 5656 5649
5697 5696 5695 5694 5693 5692 5690 5689 5687 5685 5683 5681 5679 5676 5674 5670 5666 5662 5659 5654 5648 5642
5688 5688 5687 5686 5684 5682 5681 5680 5678 5676 5675 5673 5670 5667 5664 5661 5657 5654 5650 5645 5640 5636
5680 5679 5678 5676 5675 5674 5672 5671 5669 5668 5666 5664 5661 5659 5656 5652 5648 5645 5641 5637 5633 5630
5672 5672 5670 5669 5668 5666 5664 5663 5662 5660 5658 5656 5654 5650 5646 5643 5640 5636 5633 5631 5628 5624
5666 5665 5662 5661 5660 5659 5658 5656 5655 5653 5650 5649 5645 5641 5638 5635 5632 5630 5627 5625 5622 5619
5659 5658 5656 5656 5655 5654 5652 5650 5648 5646 5643 5640 5638 5634 5632 5629 5627 5625 5622 5619 5616 5612
5652 5652 5651 5650 5649 5648 5646 5644 5642 5638 5636 5634 5631 5628 5626 5624 5622 5619 5616 5613 5610 5606